Theta_e
307 310 313 316 319 321 322 323 324 324 323 322 321 320 321 321 320 320 321 322 321 321 321 320 319 318 318 319 319 319 319 320 319 318 319 320 320 320 319 319 318 318 317 318 319 318 318 317 317 317 316 316 316 316 316 315 314 314 313 309 311 309 310 308 308 308 309 306 306 303 306 306 304 301 298 296 295 295 294 294 293 294 292 294 294
304 304 309 313 316 318 320 321 320 322 323 323 321 321 321 321 321 321 321 321 322 322 321 321 321 321 320 320 320 320 319 318 319 319 319 319 319 319 319 319 319 319 317 318 319 319 319 318 317 318 317 316 316 317 315 312 313 311 311 310 311 312 312 310 310 311 305 304 304 303 305 307 305 300 297 296 296 294 293 293 292 294 293 293 292
302 304 305 310 313 316 319 320 321 323 324 323 323 322 321 321 321 321 322 321 322 322 322 321 322 322 322 320 321 319 320 320 320 319 319 319 319 319 319 320 320 320 319 318 319 320 320 319 318 318 317 317 315 314 314 313 313 313 313 315 311 310 310 308 310 312 307 300 301 305 303 304 306 303 301 298 297 294 291 291 292 292 293 292 293
300 302 304 308 311 314 316 318 320 321 322 323 324 323 323 321 322 322 322 322 322 322 321 323 322 323 322 322 321 321 319 318 319 318 319 318 318 319 319 320 321 321 321 320 319 321 321 321 320 319 318 317 317 316 314 314 313 313 313 313 314 313 312 312 310 310 305 308 305 306 304 304 301 304 299 297 295 293 290 290 291 293 292 291 291
301 301 302 305 309 312 315 317 319 320 321 322 323 324 324 323 323 322 322 322 322 321 321 322 321 319 319 316 315 316 315 316 317 318 319 318 319 318 319 319 321 321 322 321 319 320 321 322 321 320 319 318 317 317 316 316 315 315 314 314 314 315 312 310 311 309 307 313 308 299 298 299 301 297 297 296 294 293 290 289 290 291 292 292 292
303 303 302 304 308 311 313 316 317 319 320 322 323 324 325 325 324 323 323 322 322 322 322 321 320 320 318 318 316 316 317 316 316 317 318 318 319 320 319 319 319 321 322 322 321 320 321 322 322 321 320 318 317 318 318 316 315 314 315 315 314 314 316 313 313 308 308 310 309 305 306 303 300 295 298 297 295 290 288 289 289 290 290 291 290
305 304 303 302 306 309 312 314 317 318 320 322 323 324 325 325 325 324 323 323 322 322 321 320 320 320 320 319 319 318 318 318 319 319 319 319 319 318 319 319 319 319 321 322 322 321 321 321 322 322 321 320 317 318 317 317 316 316 315 315 316 315 314 313 313 313 309 310 308 304 301 294 299 300 299 290 291 294 291 289 290 289 288 289 290
306 306 305 304 304 308 310 314 316 318 320 321 322 323 323 324 325 325 325 323 323 322 321 321 320 320 320 320 320 320 319 319 319 319 319 318 318 319 319 319 319 319 319 321 322 321 320 321 321 321 321 321 318 318 319 318 317 316 315 316 316 316 315 315 312 312 312 312 309 307 303 297 297 295 296 300 293 288 292 291 288 288 289 288 290
304 305 305 304 303 305 310 312 316 318 319 320 321 322 323 324 324 325 325 324 323 322 321 321 320 321 320 320 319 320 321 320 318 317 318 317 317 318 318 319 318 318 319 320 321 322 319 320 321 321 321 321 317 319 319 318 317 317 315 314 315 315 316 316 315 313 313 314 308 307 303 302 297 297 294 294 291 289 289 288 286 288 288 287 287
301 303 304 304 304 304 308 312 314 317 319 320 321 322 322 323 323 323 323 324 324 323 321 321 321 320 320 320 320 320 319 319 317 317 316 317 317 318 318 318 319 319 319 319 320 321 321 320 320 321 321 321 316 319 319 318 318 318 317 317 316 316 316 315 316 315 314 314 313 311 308 302 300 298 295 295 292 291 291 288 286 287 286 287 287
300 301 302 303 303 303 305 309 313 316 318 320 320 321 322 322 322 322 323 324 323 323 322 322 321 321 321 321 320 320 320 320 319 319 318 316 317 318 318 318 319 320 319 319 319 320 321 320 320 321 321 320 317 318 318 319 318 318 318 317 316 317 316 315 313 313 312 312 311 311 311 309 308 304 302 294 296 292 289 289 287 287 286 285 287
299 299 300 300 299 299 301 306 311 314 316 317 319 320 320 321 321 321 322 323 323 323 323 323 322 322 322 322 322 322 321 321 320 320 320 319 319 319 319 319 319 319 320 320 320 320 320 321 320 321 320 321 321 320 320 320 320 319 319 318 317 317 317 314 315 313 311 312 313 312 312 311 310 308 306 300 298 298 296 294 290 286 286 285 286
297 298 299 299 299 299 299 303 307 311 314 316 318 319 319 320 320 320 321 322 322 323 323 323 323 323 323 323 323 323 323 323 322 322 322 322 321 320 320 319 320 319 320 321 321 321 320 321 321 321 321 321 321 321 320 319 319 319 318 318 318 317 317 316 315 314 313 312 313 312 311 311 310 309 306 301 300 300 298 295 289 286 285 285 285
296 297 298 299 299 299 299 302 305 309 312 315 316 317 318 319 319 319 320 321 322 322 322 322 323 323 324 323 323 323 323 323 324 323 324 324 323 322 322 321 321 321 321 321 322 321 321 321 321 321 322 321 320 321 320 319 319 319 318 318 317 317 317 316 316 315 314 313 313 311 310 310 309 306 304 300 299 296 292 294 289 285 284 285 284
295 294 296 298 299 298 299 301 304 307 311 313 315 316 317 318 318 318 319 320 321 321 322 322 323 323 324 324 324 324 323 323 324 324 325 324 324 324 324 324 323 323 322 323 320 321 321 321 321 321 321 321 320 320 319 319 318 318 317 318 317 317 317 316 316 315 314 313 312 312 311 309 309 306 302 299 298 298 298 295 292 289 284 283 285
297 295 294 295 297 297 297 299 302 305 308 311 313 315 316 317 318 319 319 320 320 319 321 321 322 323 323 323 324 323 322 323 323 322 324 325 325 324 324 324 324 324 324 322 322 322 321 321 320 321 322 321 321 320 320 319 318 318 319 318 317 316 317 316 316 316 316 315 314 313 310 309 308 306 302 302 297 298 299 296 295 294 290 284 282
296 296 296 295 294 294 296 298 300 304 307 310 312 314 316 316 317 317 318 318 318 319 320 321 321 321 321 323 323 323 323 322 323 322 323 323 324 325 324 324 324 325 324 322 323 321 322 321 321 320 321 322 322 321 321 321 320 319 318 318 318 317 316 316 316 316 316 315 313 311 309 311 310 306 302 299 297 294 294 295 295 295 294 291 282
295 294 294 294 293 294 294 295 297 302 306 309 311 313 315 316 317 317 317 317 317 318 319 320 320 320 320 321 322 323 323 323 323 323 323 322 323 324 324 323 323 323 322 322 321 321 321 316 321 321 320 321 322 322 322 321 320 319 319 319 319 318 316 316 316 316 316 315 312 310 308 308 305 301 300 299 296 294 293 293 294 294 293 293 287
291 292 292 292 292 293 294 295 294 295 299 304 307 309 312 313 315 316 316 317 318 319 319 319 320 320 321 320 321 322 323 323 323 322 322 322 322 323 323 323 323 321 318 320 319 320 320 320 321 321 321 321 321 322 321 321 320 319 318 318 319 318 317 315 315 314 314 312 309 307 305 303 297 297 297 295 294 293 293 292 292 292 289 290 288
292 291 291 292 293 293 293 293 293 294 295 295 296 299 306 311 311 313 315 315 314 315 316 317 318 319 319 319 319 320 321 322 322 321 322 322 322 322 322 322 322 319 319 319 317 317 316 317 318 320 321 321 320 321 321 320 320 319 318 317 317 317 316 315 314 311 309 306 306 305 302 301 297 295 293 291 291 291 291 290 289 289 288 286 286
292 291 291 292 292 291 290 289 290 289 289 290 294 298 302 303 307 310 312 313 312 314 314 316 316 316 316 317 318 318 319 320 319 320 320 321 321 319 322 322 319 320 318 315 316 316 316 316 316 316 319 320 319 319 319 319 318 317 317 317 316 314 314 313 312 310 307 306 305 304 301 299 295 294 291 290 290 290 289 289 288 288 286 283 284
292 291 290 290 290 290 288 287 287 288 290 290 291 291 295 300 305 306 306 309 310 309 311 313 311 313 314 316 316 311 315 316 317 318 318 320 320 320 320 317 318 319 316 317 316 317 315 316 316 317 318 319 319 319 318 317 316 315 315 315 314 311 310 310 307 307 304 303 303 303 303 298 292 293 291 290 290 289 288 288 286 286 286 283 282
292 289 289 289 289 288 288 289 290 290 291 289 289 292 293 293 295 298 303 305 304 306 306 307 309 310 311 312 310 310 311 311 314 316 316 317 317 314 313 316 316 316 313 317 318 318 317 317 316 316 317 317 318 317 317 316 315 315 314 312 311 310 310 311 310 309 307 302 300 300 299 294 290 291 291 291 290 289 288 288 287 286 285 284 283
288 287 286 287 285 284 287 289 290 290 290 290 290 290 290 290 290 291 294 295 295 298 299 302 304 306 307 305 307 306 305 306 308 310 311 312 312 311 311 313 315 315 315 315 316 318 316 316 315 315 315 315 315 315 315 314 316 315 314 315 313 311 311 311 310 309 306 301 300 298 296 292 289 290 290 289 288 288 287 287 287 286 285 285 283
288 289 289 288 288 289 291 290 290 289 287 287 289 290 289 291 288 290 291 289 291 291 295 298 299 302 300 303 304 304 306 306 307 307 307 307 307 307 307 310 312 313 314 313 312 313 314 315 315 314 314 314 314 314 314 313 313 314 314 314 313 311 307 304 302 302 300 297 297 297 294 290 290 292 289 288 287 287 287 287 286 286 285 285 283
289 288 288 290 291 288 287 288 289 288 289 290 290 290 290 290 291 289 291 288 287 286 294 295 294 298 300 300 301 301 303 305 305 305 304 303 303 302 305 304 306 311 309 310 312 312 312 314 314 314 314 314 314 313 313 313 311 310 310 308 304 304 304 306 305 304 301 298 297 297 295 292 291 292 290 288 288 287 287 286 285 285 284 283 281
290 289 289 288 288 290 291 289 289 288 288 290 290 291 289 288 289 287 287 287 288 288 289 292 292 296 298 298 299 300 301 302 302 303 301 300 301 301 302 304 302 304 306 307 308 310 309 312 313 313 313 314 314 313 312 311 310 308 306 305 304 302 300 299 298 297 296 295 295 294 292 291 291 291 291 289 288 287 287 286 285 285 283 282 281
287 287 288 290 291 290 290 290 288 289 288 288 288 288 290 289 290 289 288 287 287 288 289 291 293 294 297 298 299 298 298 299 299 298 299 297 296 296 299 301 300 303 305 306 308 309 310 309 311 311 312 311 311 310 308 307 307 307 305 304 303 301 298 295 294 293 293 293 292 292 291 291 291 291 291 289 288 287 286 285 284 284 283 282 281
288 290 290 290 291 292 291 289 289 286 287 287 287 287 287 287 287 287 286 288 287 290 292 293 293 294 296 296 296 294 295 295 294 296 296 296 295 295 294 294 295 299 301 302 303 304 306 307 305 305 305 303 305 305 304 304 305 305 304 303 302 298 294 294 292 291 290 291 290 291 291 290 290 289 289 288 288 288 286 284 283 283 282 282 281
290 291 291 291 292 292 290 289 288 288 288 287 287 288 288 288 289 288 288 289 287 291 293 292 293 294 293 292 293 293 294 294 295 295 294 293 293 293 293 293 294 294 295 295 297 298 300 300 300 298 299 299 300 301 298 299 299 302 301 299 297 294 293 292 292 290 289 289 290 289 289 287 287 287 287 287 288 288 287 286 283 283 282 282 282
293 292 292 291 291 290 288 289 291 291 290 291 291 290 287 287 288 289 290 291 290 291 292 292 293 293 292 290 292 293 293 293 292 290 289 291 292 291 292 292 292 292 293 293 293 295 294 294 295 295 295 296 298 298 297 298 298 299 297 296 295 293 291 291 291 292 291 289 288 288 287 286 286 286 286 287 288 288 288 287 287 286 286 284 282
293 292 291 290 289 289 290 291 292 292 291 290 291 289 287 290 290 290 290 290 290 292 293 293 294 292 292 292 293 292 293 292 291 290 289 287 288 290 291 291 291 291 289 289 291 291 291 291 292 292 292 292 293 294 297 297 297 297 295 295 294 292 291 291 291 291 290 288 288 287 286 286 286 286 286 286 286 287 288 288 287 287 287 288 287
294 293 292 291 291 291 292 292 292 292 292 292 292 290 291 292 291 290 290 292 291 292 293 293 293 293 293 293 292 293 292 291 290 289 288 287 288 288 289 290 290 288 288 289 289 290 289 289 290 291 291 290 291 293 295 295 296 296 296 295 293 292 291 291 290 290 289 288 287 286 285 286 286 285 285 285 285 285 287 287 287 287 287 288 288
294 293 293 292 292 292 292 293 294 294 294 292 290 293 294 291 290 289 292 293 293 293 293 294 293 293 292 292 291 291 291 289 289 288 288 288 288 288 287 287 287 287 288 288 288 288 288 289 289 290 290 289 290 291 294 294 294 295 295 294 291 292 291 290 290 290 289 288 287 287 286 285 286 286 285 285 284 284 284 284 284 283 283 285 287
294 293 292 292 292 293 293 292 292 292 291 289 289 291 289 289 289 291 292 293 294 294 294 294 292 292 291 291 291 290 289 289 288 287 287 287 288 287 287 287 287 288 288 288 288 288 288 288 288 289 289 289 289 291 293 293 294 294 295 293 289 289 290 289 289 288 288 288 288 288 287 287 285 283 283 284 283 282 282 282 280 280 281 281 281
297 296 294 292 292 293 293 294 295 293 291 291 293 291 289 289 288 291 291 293 294 295 294 293 292 291 291 291 290 289 289 288 287 287 287 287 287 288 287 287 287 287 286 287 287 287 287 287 287 288 288 288 288 291 292 293 293 294 294 289 288 288 288 288 287 287 287 287 287 287 286 285 283 282 284 286 285 282 281 280 279 278 277 278 281
301 296 296 295 294 293 294 295 295 294 294 293 292 290 291 289 289 289 290 291 292 293 294 293 292 291 291 290 290 290 288 288 287 287 287 287 287 287 286 287 287 287 287 287 287 286 287 287 287 288 288 287 287 290 291 292 293 294 291 287 288 287 287 287 286 286 286 285 285 285 285 285 284 284 285 287 287 285 280 280 279 278 277 276 280
301 300 295 294 293 293 292 292 293 293 294 293 290 290 290 289 289 289 290 291 291 293 293 292 292 290 290 290 290 290 289 287 287 288 288 287 286 286 287 287 288 287 287 286 286 286 286 287 287 287 288 288 287 287 290 291 292 293 290 287 287 287 286 286 285 284 284 284 284 284 284 284 284 284 286 288 288 285 280 280 279 278 277 278 279
301 300 296 293 292 292 290 289 289 291 291 289 289 289 290 290 289 289 289 290 291 292 292 292 291 291 290 290 290 290 289 288 288 288 288 287 287 287 286 287 287 287 287 286 286 287 286 286 286 287 286 287 286 286 289 291 292 292 289 287 287 286 286 285 284 283 283 283 282 284 284 284 284 284 286 288 288 285 281 280 280 278 278 278 280
297 294 295 295 290 288 288 289 290 292 292 289 288 289 290 290 289 288 289 290 291 291 291 291 291 290 290 289 289 289 288 288 288 288 287 287 287 286 286 287 286 287 287 286 286 286 286 286 286 286 286 286 286 286 287 290 291 291 290 287 287 287 286 285 284 284 283 283 283 282 284 285 285 285 287 288 288 287 283 282 281 280 279 279 279
299 297 291 289 289 291 292 292 292 293 290 288 289 290 290 290 289 288 289 290 290 290 290 291 290 290 289 289 289 289 288 288 288 288 287 287 287 287 286 286 286 286 286 286 286 286 286 285 285 285 285 286 286 286 286 290 291 291 290 288 286 287 287 286 285 284 284 283 282 282 282 284 286 286 287 288 288 288 286 282 281 280 280 280 280
294 291 290 290 289 289 289 289 288 289 288 288 289 290 290 289 288 288 290 288 288 289 290 290 289 289 289 288 288 288 288 288 287 287 287 286 287 287 287 287 287 286 286 286 286 286 285 285 285 285 285 285 285 285 285 288 290 291 290 289 286 286 286 286 285 284 283 283 283 282 282 283 285 286 287 287 288 289 288 283 281 284 284 285 275
296 289 288 291 290 289 290 290 288 285 287 288 289 290 289 288 288 289 288 288 289 289 289 289 289 289 288 288 288 288 288 288 287 287 287 286 286 286 286 286 286 286 286 285 285 285 285 285 284 284 284 285 285 285 285 286 288 290 290 289 288 286 288 286 285 283 283 283 283 282 282 283 284 286 286 287 287 288 288 285 285 285 285 285 280
294 292 290 287 291 290 290 287 284 284 286 287 289 289 289 288 289 287 287 288 288 289 289 288 288 288 288 287 287 287 287 287 287 287 287 286 286 286 286 286 286 286 286 285 285 285 285 284 284 283 284 284 284 285 285 285 286 289 290 290 289 288 288 285 285 284 284 283 282 282 282 284 284 285 286 286 286 287 285 287 287 286 285 283 274
294 292 288 288 290 290 289 286 284 284 285 287 288 290 289 289 288 287 287 288 288 288 288 288 288 287 287 287 287 287 287 287 286 287 286 286 286 286 286 286 286 286 286 285 285 285 285 284 284 283 283 283 284 284 284 285 285 286 289 290 289 289 288 287 284 283 283 283 283 284 284 284 284 285 286 286 286 286 287 287 287 286 283 276 274
290 287 286 287 288 287 287 286 284 283 284 285 287 289 289 289 285 286 287 288 287 287 287 287 287 287 287 287 286 286 286 286 286 287 286 286 286 286 286 285 285 285 285 285 284 284 284 284 283 283 283 282 282 283 283 284 284 285 286 288 288 287 286 285 284 283 283 284 285 285 284 284 284 284 284 284 283 283 286 286 286 285 281 278 275
290 290 286 285 286 286 286 286 286 284 284 283 283 283 284 284 285 287 287 287 287 287 287 287 287 287 287 286 287 286 286 286 286 286 286 286 286 286 286 285 285 285 285 284 284 284 284 283 283 283 282 282 282 282 282 283 283 284 284 285 286 285 285 284 279 279 280 278 280 280 279 282 282 283 283 283 283 283 281 280 280 280 279 278 276
289 288 286 287 287 288 288 287 288 286 283 282 280 281 282 284 285 286 287 287 287 287 287 287 287 287 287 287 287 284 285 286 286 286 285 285 286 286 286 285 285 285 284 284 284 283 284 284 283 283 282 281 281 281 281 282 282 283 282 281 280 280 279 276 274 270 271 273 274 280 279 275 274 274 274 273 273 273 275 276 275 276 278 278 279
286 285 285 287 288 288 288 288 287 283 282 282 281 279 282 284 286 286 287 287 287 287 287 286 286 286 286 286 286 286 286 285 285 285 284 285 285 286 285 283 282 284 286 285 284 284 284 284 284 282 281 278 277 277 278 282 279 282 279 277 275 275 272 271 276 278 273 272 272 272 271 271 270 272 271 271 271 272 272 272 273 274 276 278 279
284 282 283 283 282 284 284 284 281 281 282 282 280 280 281 284 286 287 287 287 286 286 286 286 286 286 286 285 285 286 285 285 284 282 281 280 281 284 284 284 282 283 283 284 284 280 282 281 280 279 278 276 276 274 280 283 283 284 284 283 281 281 281 276 281 283 276 269 268 268 268 269 269 269 270 271 271 271 271 271 272 277 275 274 277
282 282 281 282 279 280 281 280 279 280 280 280 279 279 280 282 285 286 287 287 286 286 286 285 285 285 284 285 285 284 284 283 283 282 281 280 279 281 283 283 283 283 283 283 283 282 281 280 278 274 274 282 282 283 284 284 284 285 285 285 285 284 284 283 284 278 271 270 269 269 269 268 269 268 269 269 270 270 271 271 271 271 271 272 274
Wind_Speed
12 14 9 8 12 11 9 9 10 10 10 10 11 11 12 13 12 14 10 9 10 9 9 9 9 7 6 9 10 7 8 7 7 6 7 8 8 7 6 6 6 6 6 6 7 6 6 6 6 6 6 6 6 7 7 7 6 6 5 4 5 4 3 1 3 3 5 2 3 2 1 2 0 1 1 1 2 2 3 5 4 4 4 4 4
8 8 5 7 9 10 10 9 9 11 12 11 13 14 13 13 14 13 9 10 11 11 11 10 10 10 10 10 8 8 7 8 8 7 8 7 7 7 6 6 7 6 7 7 8 8 7 7 7 8 7 7 7 6 5 6 5 4 4 3 1 5 5 5 5 5 0 3 3 1 1 1 0 1 1 1 1 1 2 3 4 5 5 4 3
10 11 7 8 9 10 10 11 11 14 14 14 14 12 12 12 13 11 11 12 12 12 11 11 9 9 9 7 9 7 6 7 7 6 6 7 7 6 6 7 7 8 8 8 8 9 9 8 9 8 7 7 6 6 5 6 6 7 7 7 3 1 2 2 5 7 5 3 2 3 2 2 3 1 1 2 2 1 1 3 4 4 5 4 4
15 14 13 11 11 10 10 11 13 12 12 11 13 14 12 13 12 12 12 12 12 12 12 10 10 9 9 7 7 9 7 7 7 6 6 7 8 8 8 8 8 9 9 9 9 9 10 10 8 8 8 7 8 8 7 8 7 6 6 6 6 5 3 5 5 6 5 7 1 4 2 2 4 7 4 3 1 2 1 3 2 4 4 3 2
13 13 11 9 9 11 13 14 13 13 13 14 14 13 12 15 14 13 12 13 11 11 12 9 7 5 4 2 2 3 1 5 5 8 9 8 8 9 10 8 10 10 9 10 9 10 9 9 8 8 8 8 7 8 8 10 9 8 9 8 8 8 7 4 5 6 5 7 7 3 2 1 4 1 2 5 0 2 3 3 3 4 4 4 4
14 15 13 11 12 11 10 12 13 13 14 14 14 15 14 13 13 13 11 11 12 12 12 10 9 10 8 8 9 8 9 9 12 13 10 11 12 7 6 9 10 10 9 10 10 9 10 10 9 9 9 8 8 9 8 6 7 8 9 9 9 7 8 7 6 4 6 7 5 2 4 5 3 2 3 5 1 2 1 2 3 4 3 4 3
13 12 10 8 11 11 12 13 14 14 15 13 13 14 15 14 13 14 13 12 11 11 12 10 10 10 13 13 12 12 12 11 9 7 8 8 6 7 8 8 10 11 11 10 10 10 10 9 10 10 10 9 8 8 8 9 8 9 7 8 9 8 6 8 9 6 3 6 5 2 1 1 4 6 6 1 2 2 1 2 3 2 3 3 4
14 14 14 13 11 14 16 16 14 16 14 12 14 13 14 15 14 15 13 12 11 10 12 13 13 12 12 12 12 12 13 12 8 9 6 6 7 9 8 8 10 11 11 11 11 11 10 10 10 10 11 10 9 9 10 8 6 6 8 10 8 8 9 10 7 6 9 5 5 6 4 1 1 1 3 8 4 2 3 1 2 1 1 3 4
14 12 12 13 13 12 13 13 15 15 13 14 15 14 14 15 15 13 13 13 12 13 13 14 13 13 13 12 12 11 10 9 6 7 7 7 8 7 8 8 9 10 11 11 11 11 10 11 10 11 10 10 8 8 8 8 10 9 8 7 8 8 8 9 7 8 8 8 5 5 3 5 2 0 1 1 3 3 3 4 3 1 1 3 4
8 11 12 11 12 13 14 14 12 13 14 14 14 12 13 12 13 13 14 12 12 14 14 14 15 12 13 13 15 13 9 7 6 7 7 7 10 9 8 8 8 8 10 11 11 11 11 10 11 11 11 10 8 10 9 9 8 9 10 10 9 10 7 7 10 7 8 7 8 7 8 4 2 2 1 2 1 2 5 4 6 6 7 5 3
8 9 10 12 11 11 9 12 14 13 12 13 13 13 13 12 13 15 16 13 12 14 14 16 14 14 14 15 16 15 12 10 9 10 8 7 10 10 9 8 7 9 8 9 11 10 11 11 11 11 10 10 9 9 10 10 9 10 9 9 10 11 9 9 8 7 7 8 8 8 9 10 10 10 9 6 6 5 3 4 3 6 6 2 3
7 7 9 10 8 7 6 10 12 13 11 11 12 11 11 11 12 14 14 13 12 13 14 15 14 15 15 15 16 15 13 11 13 13 12 12 11 9 7 7 8 8 8 9 10 11 10 10 10 10 10 10 11 10 9 10 9 8 9 9 10 10 9 9 9 10 10 8 10 9 8 8 8 8 8 9 9 8 8 8 6 3 1 3 1
7 8 8 7 9 10 9 11 10 10 12 14 14 13 12 11 13 15 16 14 14 13 15 15 14 15 16 16 15 12 12 13 12 12 11 11 10 9 8 9 8 8 10 10 11 10 10 10 11 11 11 11 11 10 10 10 9 9 10 11 11 11 11 11 10 11 12 11 10 9 9 8 9 8 6 8 8 7 7 7 2 2 5 4 1
8 8 7 7 9 9 9 10 10 11 12 14 14 13 12 12 13 14 17 14 13 13 15 14 16 16 14 14 13 11 11 12 12 12 11 10 9 10 10 10 9 11 10 11 9 8 10 11 11 11 12 11 11 11 10 10 10 9 10 11 11 11 9 11 12 12 10 12 9 8 8 8 8 6 7 7 7 6 5 8 5 0 1 5 0
9 8 8 9 10 9 9 10 10 10 11 12 11 12 11 11 13 15 15 13 13 15 13 15 15 15 13 13 12 11 12 11 12 11 10 11 10 10 10 10 11 11 11 10 7 10 10 10 11 11 11 11 10 10 10 9 9 8 8 10 10 9 10 10 10 11 10 10 9 9 9 9 9 8 8 8 7 8 8 8 8 6 1 2 3
9 8 9 10 9 8 7 7 9 10 11 10 11 11 11 12 12 15 18 16 14 14 14 15 15 13 13 14 15 13 11 11 10 10 11 11 11 11 12 11 11 10 9 8 8 9 9 10 10 11 10 9 9 10 10 9 9 9 9 9 11 8 9 11 11 11 13 12 12 11 9 9 9 9 9 9 9 8 8 6 8 8 9 6 2
10 9 9 9 6 7 8 8 8 8 8 10 12 12 14 14 13 13 14 11 11 14 15 14 14 13 14 15 14 13 14 14 14 14 13 10 10 11 11 11 10 10 9 7 8 8 9 9 9 9 9 9 10 10 10 10 10 10 10 10 11 9 9 11 10 11 11 12 10 11 10 10 11 10 8 7 7 6 6 7 8 10 10 9 7
8 7 7 7 6 7 7 7 8 9 11 10 12 11 12 13 13 15 14 14 12 13 14 13 14 14 14 14 15 15 14 15 14 14 11 10 11 11 10 10 11 9 8 7 7 8 8 9 9 9 9 9 11 10 10 10 10 10 11 12 11 10 10 10 10 11 12 12 11 10 9 9 8 8 10 10 8 8 8 8 8 6 7 10 8
8 8 7 7 8 9 9 9 7 6 6 7 6 6 6 7 9 11 14 14 14 12 12 11 12 11 11 13 13 13 13 13 13 11 9 11 13 12 11 12 9 8 7 8 8 8 8 8 9 9 9 10 10 11 10 10 10 10 10 10 10 9 10 11 11 10 10 10 12 12 8 6 2 3 3 5 5 7 8 8 9 8 8 9 9
9 8 8 8 8 7 7 7 7 8 7 6 5 4 7 8 8 10 10 8 8 9 10 11 11 11 10 9 10 11 12 12 11 10 10 12 13 11 11 11 11 7 9 8 8 9 8 9 8 9 10 10 10 10 10 10 9 10 10 9 10 11 11 12 12 10 6 4 6 9 11 10 8 6 6 6 7 7 7 7 7 7 8 8 7
8 7 7 8 8 6 5 5 6 4 4 4 5 8 7 5 8 9 11 10 9 10 9 10 8 9 10 11 11 10 11 10 9 9 11 12 11 11 11 10 6 10 8 8 9 9 9 9 10 10 11 10 10 10 10 9 9 10 10 10 10 11 11 10 9 10 9 10 11 11 8 7 6 8 7 6 6 7 6 7 7 7 7 6 8
8 7 6 7 6 7 5 4 3 3 4 5 5 5 6 7 9 7 7 8 9 8 8 9 7 8 10 11 10 6 7 7 9 10 11 11 11 10 9 7 9 10 8 9 10 9 9 10 10 11 11 11 11 11 10 10 10 9 9 8 8 9 10 8 5 6 7 9 10 11 11 10 9 8 7 8 7 7 7 7 7 7 7 8 6
7 6 6 6 6 5 3 2 3 4 4 4 4 5 6 6 6 6 8 9 7 7 6 7 8 8 9 8 6 7 7 7 9 10 10 11 9 7 7 9 10 9 7 10 10 10 10 10 11 11 11 10 11 10 9 10 11 10 10 8 7 7 9 10 12 12 12 9 8 9 7 5 5 7 7 7 6 7 7 9 9 7 8 7 6
6 5 4 5 4 3 2 4 4 3 4 4 4 4 3 3 4 4 7 6 5 6 6 6 7 8 8 7 8 7 7 7 9 8 9 8 8 7 7 9 10 8 9 9 9 10 9 10 10 10 9 9 8 8 8 9 11 11 11 12 11 11 11 12 12 13 10 8 11 9 7 8 7 5 5 6 6 6 7 7 7 5 6 8 6
5 6 6 3 3 5 5 4 4 4 4 4 4 5 4 4 4 5 5 5 5 5 6 6 6 8 7 8 8 7 8 9 9 8 9 9 8 8 7 9 8 9 9 8 7 7 8 8 9 9 9 9 9 8 9 8 8 10 11 11 11 11 9 5 3 2 2 3 5 7 5 8 10 11 8 7 8 7 6 6 7 7 6 4 3
6 5 4 6 6 4 4 5 4 4 5 5 5 5 5 5 6 5 5 4 5 3 5 6 6 7 7 7 7 6 8 9 9 8 8 6 6 6 6 6 6 8 7 6 7 7 8 9 9 9 9 9 9 10 9 9 8 7 7 7 4 5 6 6 8 9 9 9 10 10 8 8 8 11 11 9 9 10 8 8 7 7 6 6 5
8 7 4 2 4 8 8 5 5 5 5 5 5 6 5 5 6 5 4 5 5 4 3 5 5 6 6 7 7 8 7 7 7 7 5 5 5 5 5 5 4 6 6 6 6 7 7 7 8 8 9 9 10 10 10 9 7 6 6 6 6 6 6 6 5 5 5 5 5 4 5 7 9 10 10 11 11 10 9 10 9 8 7 7 7
3 3 5 8 8 6 7 7 5 7 6 5 5 6 5 6 7 5 5 5 4 4 4 4 5 6 6 7 6 5 5 5 5 4 5 4 4 4 5 5 5 6 7 7 7 8 8 7 8 8 9 8 7 7 7 7 8 8 8 8 7 7 5 4 3 4 5 6 5 6 6 8 10 7 7 7 9 10 8 8 6 7 8 8 8
5 7 7 7 8 9 8 6 6 5 6 6 6 6 5 5 5 4 4 6 5 6 6 6 6 7 7 4 4 4 4 4 4 4 4 4 3 3 2 2 4 5 6 5 4 4 5 6 6 6 5 4 4 5 4 5 6 7 5 5 5 4 4 4 4 3 3 4 5 6 7 7 7 9 10 10 11 10 10 10 7 8 8 8 7
9 10 10 9 11 9 6 4 5 7 7 6 6 7 7 7 7 5 5 4 5 6 6 6 6 6 4 3 4 4 4 3 3 3 2 1 1 1 1 2 2 2 3 3 4 4 4 4 4 3 2 3 3 3 5 7 6 4 4 4 4 4 4 4 5 4 3 4 4 5 5 8 11 10 10 11 12 13 13 11 12 11 10 9 8
11 10 10 10 9 6 5 5 8 8 9 8 8 6 5 5 5 6 6 5 6 6 5 6 6 4 4 4 4 4 4 4 3 3 2 2 1 1 1 1 1 2 2 2 3 3 3 3 4 4 3 3 2 2 3 4 5 5 4 4 4 4 4 5 6 7 8 5 4 3 3 4 4 3 5 9 12 14 13 11 11 14 13 15 11
10 10 8 7 7 7 8 9 10 9 8 7 7 6 4 9 7 7 6 5 6 6 6 6 5 5 5 6 5 5 5 4 4 3 3 2 2 1 1 1 2 2 1 2 2 3 3 3 3 3 3 3 2 2 3 5 6 8 8 5 5 5 6 6 6 6 4 4 5 5 4 5 6 8 7 7 9 12 13 13 12 14 14 14 13
11 11 11 10 10 11 12 11 8 9 9 11 8 6 9 10 8 6 6 7 7 7 6 6 5 5 5 5 5 6 5 4 3 3 3 2 1 1 2 2 2 2 3 3 3 3 3 2 3 3 3 3 2 3 5 7 8 9 10 8 5 6 6 6 6 6 6 6 7 6 6 6 6 10 10 11 9 9 12 13 12 15 15 15 13
10 10 11 10 9 8 10 12 13 13 12 7 8 11 11 6 5 6 8 7 8 7 7 6 6 5 5 5 5 5 4 3 3 2 2 2 2 2 2 2 3 3 3 3 3 3 3 3 3 4 4 3 3 4 6 7 7 8 9 8 4 6 5 5 6 6 6 7 8 8 8 9 10 11 8 7 6 6 5 6 6 6 6 9 10
12 11 10 10 12 13 12 10 9 10 8 6 6 9 4 4 6 8 7 8 8 8 7 7 6 5 5 5 5 4 4 3 3 3 3 3 3 3 3 3 3 3 4 4 4 4 3 3 3 3 3 3 2 3 4 6 7 8 9 6 3 3 3 3 4 4 5 6 7 8 8 6 3 2 2 4 6 6 5 5 4 4 5 5 5
16 15 13 13 14 15 14 14 13 9 7 8 11 7 6 6 4 6 7 7 7 7 7 6 7 7 7 6 6 5 4 4 5 4 4 4 4 5 4 3 3 3 3 3 2 2 3 2 2 2 2 1 1 2 2 4 6 6 8 4 4 5 4 4 3 3 3 3 3 4 4 3 4 4 6 10 7 5 5 6 5 5 4 3 5
17 8 13 14 12 11 13 12 11 12 11 12 9 7 8 6 7 7 7 7 7 8 8 8 7 7 7 7 7 7 6 6 5 5 5 5 5 4 4 3 4 4 4 3 3 2 3 4 3 3 3 3 2 3 6 7 7 9 7 3 4 3 3 3 3 2 3 3 2 3 3 3 3 5 6 10 9 8 6 7 6 6 5 4 7
17 14 8 9 11 11 10 8 9 10 12 9 7 8 9 8 8 6 7 7 8 9 8 8 8 8 8 8 8 8 8 8 7 7 6 5 4 3 4 4 5 5 4 4 4 3 3 3 4 4 5 4 3 3 5 6 7 9 7 5 4 4 3 3 3 2 2 3 3 6 5 5 5 5 8 12 13 10 8 8 8 7 7 8 8
19 16 13 12 13 13 10 7 6 8 8 6 8 9 9 9 8 8 8 9 10 10 9 10 9 9 9 9 9 9 9 9 9 8 8 8 7 6 4 4 4 4 4 4 4 4 3 2 3 4 5 5 3 2 4 5 7 9 7 5 5 4 4 3 3 3 3 4 4 5 9 8 6 5 10 12 14 12 8 8 9 8 9 10 10
15 11 12 11 6 4 5 8 11 14 12 9 9 9 10 10 9 7 9 11 13 12 9 7 8 8 8 8 8 9 8 9 9 8 7 7 6 6 6 6 5 5 5 4 4 4 4 3 3 4 4 4 5 3 4 7 8 10 10 7 5 6 6 6 5 4 4 2 3 3 4 6 6 7 10 13 14 14 10 6 5 8 8 12 3
19 17 11 6 7 11 13 14 15 13 7 9 9 10 10 10 9 9 12 14 8 7 8 9 8 8 8 9 8 8 9 8 7 8 7 6 7 7 7 6 6 5 5 5 5 4 4 3 2 2 3 2 2 3 2 5 7 10 11 8 5 5 4 4 4 3 3 4 3 3 3 5 9 10 11 13 13 14 11 7 7 8 7 1 5
11 7 6 8 7 8 9 8 7 7 9 10 11 12 12 10 9 13 15 6 7 8 8 9 9 9 9 8 8 7 8 8 6 7 8 7 6 7 8 7 6 6 7 6 5 4 4 4 3 2 3 3 3 4 2 4 6 8 10 9 5 3 4 5 4 4 4 4 4 3 4 5 8 10 11 11 13 12 13 7 6 6 4 3 2
16 8 7 9 9 11 13 13 8 6 7 9 11 13 11 10 12 16 7 7 8 9 9 9 9 9 9 9 8 9 8 7 7 7 8 7 6 6 6 7 7 7 6 6 5 4 4 4 3 3 3 3 2 2 4 3 4 7 9 8 7 5 6 5 5 5 5 4 2 3 3 7 9 9 10 11 11 12 9 6 8 7 5 5 6
10 9 9 8 11 10 10 7 5 6 7 8 12 12 11 12 16 6 8 7 9 8 9 9 9 9 9 8 8 8 7 6 7 7 6 7 6 5 5 5 5 6 6 5 4 4 4 4 4 3 3 2 2 2 3 4 3 5 7 8 8 8 7 4 4 3 3 3 3 3 4 7 8 9 9 10 10 8 5 8 9 9 7 6 4
12 10 8 9 13 13 11 9 8 9 9 10 11 14 14 16 10 10 10 11 10 10 10 10 9 9 9 7 7 7 7 6 6 7 6 6 6 5 5 3 4 4 5 5 5 4 4 4 4 4 3 2 2 2 2 3 4 3 4 7 8 8 7 7 3 2 2 3 3 5 6 7 7 8 8 8 6 8 9 8 8 9 7 5 5
8 6 7 10 8 6 8 10 8 8 8 9 10 10 16 14 9 10 11 11 11 11 11 10 9 8 8 8 9 7 7 6 6 5 5 5 6 6 5 5 4 4 4 4 4 4 4 4 4 4 3 2 2 2 2 2 2 3 2 4 7 8 8 7 5 4 4 5 5 6 6 6 6 5 4 3 3 3 5 7 7 8 5 5 5
12 13 8 7 8 10 11 12 13 11 10 9 9 7 5 6 11 9 10 10 11 11 10 9 10 9 8 9 9 8 7 7 6 5 5 6 6 6 6 6 5 5 5 5 5 5 4 4 4 3 3 2 2 2 2 2 2 2 3 3 4 4 6 6 4 3 4 3 3 4 3 4 4 5 4 3 3 3 2 2 2 3 5 5 6
14 10 11 10 12 14 15 14 14 12 10 8 6 6 5 8 9 10 10 11 11 11 11 10 10 9 8 9 8 9 9 7 6 6 6 5 5 5 7 7 7 7 7 6 6 6 6 6 5 4 4 3 2 2 2 3 3 3 3 3 3 4 4 5 4 3 3 3 3 5 5 3 3 2 2 1 1 0 1 1 2 2 4 4 5
9 10 11 14 14 14 14 14 10 5 6 6 5 5 7 10 10 10 11 12 11 10 9 9 8 8 8 7 7 8 7 8 7 6 4 3 5 6 6 5 2 2 4 7 8 6 5 4 5 6 6 4 4 4 5 4 3 4 5 5 4 5 3 3 5 8 6 4 5 5 4 4 2 2 1 1 0 0 1 0 1 2 1 2 4
5 3 6 6 5 7 6 6 4 6 6 6 5 4 4 6 8 10 11 12 11 10 10 9 8 8 8 8 8 7 7 8 8 8 7 6 7 7 4 6 5 4 7 6 5 4 5 6 6 3 2 4 6 4 3 5 6 6 6 6 5 5 5 5 6 9 6 5 2 3 2 2 1 1 1 0 0 0 1 2 2 2 2 2 3
4 5 5 7 5 5 6 7 7 6 6 6 6 5 6 5 6 8 9 10 11 10 9 8 9 8 9 8 8 8 8 7 8 8 7 8 6 7 11 10 7 7 8 8 8 9 9 6 6 5 1 2 3 2 3 4 5 5 5 5 5 6 6 7 8 6 2 3 2 3 1 1 1 1 1 1 1 2 2 2 3 2 2 3 4
Wind_Direction
235 236 226 212 217 213 211 206 210 208 205 202 201 204 203 202 199 210 202 196 193 194 194 190 193 198 207 207 211 205 213 218 222 222 221 221 218 215 210 207 206 202 203 195 203 206 209 212 213 220 203 199 204 213 212 209 204 199 198 182 174 182 227 149 212 124 119 37 21 14 10 22 59 122 207 273 239 210 163 155 151 140 159 167 183
266 267 224 214 216 210 205 206 203 206 214 202 204 207 204 204 205 206 195 199 202 200 195 198 200 198 193 203 203 203 204 210 221 218 223 228 225 214 209 208 208 206 202 198 203 203 206 208 209 213 202 206 210 212 210 203 197 198 171 170 213 185 203 183 192 129 47 170 149 288 335 352 334 134 177 258 278 249 200 166 164 161 169 176 154
247 250 236 220 218 212 202 204 205 210 210 204 206 205 207 207 211 203 200 199 205 202 199 205 200 200 196 197 193 203 208 207 213 211 210 225 226 215 207 206 207 211 207 202 203 205 206 205 211 210 205 199 202 213 207 207 199 198 186 184 190 267 264 233 186 192 179 147 119 104 240 234 276 279 238 242 259 255 304 205 181 167 174 172 166
242 239 235 220 213 210 204 205 209 209 212 211 210 206 206 210 210 204 204 204 204 204 205 205 200 199 204 195 195 194 195 194 201 203 208 213 226 215 211 206 206 212 210 207 209 210 207 209 209 208 210 199 201 204 204 211 202 200 194 200 170 185 206 223 206 207 142 134 230 206 204 161 264 235 204 261 193 241 242 242 198 185 173 167 150
241 245 239 226 217 212 205 206 205 207 208 208 208 207 208 209 208 204 205 206 206 202 202 196 185 189 185 162 153 204 237 190 195 220 212 212 218 217 216 204 210 214 213 212 210 214 211 212 210 211 210 206 201 208 207 208 202 197 191 191 192 191 203 215 222 203 209 200 156 96 17 259 224 264 162 261 200 216 248 221 229 186 179 182 179
238 240 234 221 220 222 217 214 209 210 209 209 206 210 208 207 203 204 207 207 206 201 195 190 192 187 179 190 201 203 214 204 211 214 207 211 217 214 211 208 213 216 216 215 213 213 214 212 211 210 211 207 203 211 212 202 202 199 197 194 201 203 191 199 216 220 211 224 213 168 158 177 174 236 112 268 359 233 286 231 227 212 189 181 186
243 245 242 218 220 217 218 215 214 213 215 207 208 211 210 208 202 201 203 205 203 198 188 190 195 198 199 202 204 207 215 222 221 221 217 220 212 210 211 210 213 215 218 216 214 212 215 213 212 214 214 211 204 207 211 207 204 203 193 198 203 197 186 204 208 204 209 249 238 238 47 58 150 132 211 61 312 293 248 239 244 211 196 187 188
245 239 234 229 220 210 216 213 211 215 211 203 211 209 205 208 205 203 202 201 197 191 189 193 198 200 204 211 212 215 215 222 206 217 213 200 204 213 208 213 212 216 218 218 216 213 211 214 211 214 215 214 201 209 212 210 206 206 199 203 202 198 197 208 208 193 193 217 201 227 224 99 114 58 151 178 169 186 269 307 311 274 190 218 204
235 239 236 228 224 220 221 219 217 215 207 208 212 206 205 208 208 205 203 198 195 190 192 196 200 200 205 208 217 222 221 224 208 205 206 197 215 211 211 215 214 217 220 220 218 216 210 213 212 216 216 215 206 215 216 208 207 202 199 202 208 211 207 212 202 203 199 212 174 233 205 220 213 317 33 106 152 177 269 199 242 12 306 266 230
241 240 242 234 225 222 217 219 217 214 212 212 213 207 207 205 205 202 206 201 197 193 193 196 200 200 206 211 216 220 214 219 200 210 206 196 218 215 214 215 214 217 219 221 221 217 215 213 216 217 217 214 207 215 213 213 211 210 207 205 206 210 209 208 212 207 203 206 195 191 197 192 178 229 218 170 343 175 206 207 200 185 213 240 192
240 240 240 239 232 225 215 213 218 216 214 211 213 209 206 202 201 203 207 200 194 196 193 198 198 201 211 212 215 218 212 210 212 219 207 205 219 219 214 218 214 219 214 220 220 217 217 214 216 219 217 214 211 212 213 211 209 209 209 207 208 209 207 208 214 216 202 206 206 195 202 196 201 205 204 189 189 203 205 250 202 200 206 221 246
253 248 248 246 250 238 216 219 218 218 213 214 217 214 209 203 200 205 209 201 195 195 196 202 199 206 212 213 215 217 210 211 215 221 213 217 221 224 217 217 223 219 218 218 219 215 215 217 216 218 220 216 216 213 213 211 209 205 206 206 211 212 210 205 208 213 209 208 211 207 211 209 219 214 203 188 191 210 196 215 197 162 157 205 260
261 254 249 247 236 229 217 221 218 211 210 211 212 208 204 203 201 204 210 203 200 194 197 202 202 208 211 214 219 217 213 217 219 224 218 218 220 221 214 222 221 221 221 218 222 209 211 215 212 215 220 218 219 212 216 211 206 206 207 209 211 208 208 205 207 214 209 208 214 210 210 212 217 214 183 188 207 202 194 213 225 150 177 193 217
243 247 250 246 240 235 222 220 215 214 213 213 212 207 203 203 201 205 214 204 200 196 200 202 207 212 211 214 218 214 217 216 222 224 221 219 217 219 219 221 222 225 222 222 215 201 209 215 213 217 219 219 216 218 216 212 209 209 209 212 214 216 210 208 213 216 214 217 212 206 210 212 219 202 196 178 188 172 189 198 172 93 106 185 267
239 243 241 240 240 233 225 218 218 216 214 213 212 210 205 205 202 205 215 208 199 202 202 205 210 212 211 213 216 213 217 217 223 223 221 218 217 218 221 219 223 226 222 224 202 202 209 211 214 217 219 218 217 219 219 215 213 213 215 218 219 215 211 208 215 216 218 218 215 211 210 211 214 203 187 199 185 194 189 183 166 167 182 164 190
252 237 244 244 241 240 233 226 220 218 215 211 210 206 204 209 206 208 212 208 199 202 206 207 211 210 208 210 213 211 214 217 224 222 222 216 216 216 222 220 224 227 224 215 212 205 208 210 211 219 219 219 219 220 218 215 212 212 218 218 223 213 215 214 218 215 220 214 213 213 208 215 212 203 196 200 196 196 195 181 182 185 176 216 205
249 234 236 246 248 242 230 226 224 221 216 211 209 202 202 204 205 212 219 213 200 205 208 208 211 208 210 211 212 209 211 213 218 220 218 216 217 221 223 224 226 225 226 212 216 208 212 210 212 217 219 220 221 219 218 217 212 213 216 218 222 215 216 218 216 214 217 212 213 212 207 213 214 206 194 192 192 189 196 191 188 191 194 190 187
248 250 244 242 242 244 239 233 225 217 214 215 213 206 205 204 203 208 212 211 206 205 208 210 209 209 212 213 214 213 213 217 219 221 214 211 220 224 224 227 225 224 222 217 208 212 214 210 215 217 217 218 222 221 219 217 214 215 217 219 219 214 216 219 214 211 211 208 210 209 213 220 207 183 198 192 182 185 181 185 194 212 195 203 188
261 251 248 242 233 233 231 232 234 234 233 230 229 210 211 211 210 210 214 214 209 206 210 214 211 212 214 214 213 214 216 220 221 220 209 213 221 221 222 226 226 218 214 215 206 213 212 211 212 218 216 219 221 223 220 219 215 218 217 220 218 216 216 217 216 210 217 208 208 208 206 227 161 189 167 172 185 178 191 187 198 200 208 212 186
240 241 244 244 241 230 227 227 231 226 226 228 223 208 213 213 206 214 222 220 211 210 210 214 213 213 217 216 216 216 217 220 219 210 212 217 223 220 222 224 223 206 217 210 208 213 209 209 212 216 219 219 219 220 218 219 216 220 217 216 215 212 215 215 216 214 220 208 206 210 204 197 185 183 187 185 187 195 184 185 196 199 209 206 178
232 229 237 247 250 252 242 236 238 247 246 229 207 208 213 203 214 215 214 216 210 212 206 215 209 214 218 218 218 214 217 216 215 211 214 220 223 219 220 222 208 218 210 204 213 213 209 209 212 215 218 219 219 219 216 217 216 219 219 216 214 209 213 222 221 219 219 212 210 206 198 202 173 184 184 173 177 181 172 181 180 183 199 198 171
228 229 235 252 262 261 257 251 246 235 237 220 223 209 208 208 214 213 218 220 212 210 203 209 203 208 215 221 221 213 211 205 210 214 216 219 221 218 218 209 213 220 202 210 214 213 210 209 212 215 218 220 219 218 213 212 213 216 220 217 217 213 221 232 227 222 210 206 204 203 204 194 175 177 167 179 181 175 179 177 187 187 193 192 200
238 232 238 241 244 249 250 232 203 200 211 212 208 201 209 214 210 213 207 220 204 208 198 199 202 205 216 217 209 208 202 202 208 215 218 220 221 216 203 209 216 218 206 211 214 213 212 211 214 215 216 217 217 216 211 208 213 212 214 217 218 213 213 216 218 222 218 208 207 216 212 154 156 164 181 187 178 188 187 189 188 185 185 193 202
254 255 254 246 247 278 280 250 229 216 205 208 207 212 219 216 213 205 216 220 211 206 196 197 203 210 210 203 208 206 197 204 210 215 217 218 213 210 202 210 215 212 213 215 215 215 214 212 216 215 216 218 219 219 215 211 213 212 214 218 217 217 217 221 221 221 216 195 204 204 197 166 150 160 185 182 189 196 192 191 179 184 187 187 184
258 238 233 243 244 236 231 228 228 230 236 236 227 220 212 220 206 205 217 213 212 200 192 203 200 208 208 205 210 199 202 206 211 210 215 213 211 211 206 211 211 215 217 212 216 217 216 215 217 216 217 219 220 219 221 221 221 219 219 218 220 216 213 210 218 229 221 227 247 231 180 153 166 185 180 176 179 186 183 173 180 174 179 175 160
226 230 235 223 224 249 254 241 236 233 227 225 224 223 220 217 219 204 202 207 217 196 200 189 200 202 208 210 210 202 210 211 212 215 216 212 210 209 210 217 210 217 214 212 209 210 211 215 215 216 216 217 218 218 216 219 219 222 227 230 212 192 190 201 211 210 199 189 194 204 195 191 185 188 186 177 169 178 173 183 182 179 168 160 153
209 212 229 290 281 246 235 235 226 225 225 227 223 225 222 224 234 227 219 210 204 177 171 190 191 205 203 210 206 209 208 212 211 214 209 208 211 209 207 218 211 217 212 212 212 212 215 215 217 216 215 215 217 213 214 217 215 206 201 195 197 202 208 214 214 200 194 199 202 195 186 184 186 198 181 176 174 180 185 191 184 173 167 164 159
291 270 244 231 237 251 248 237 227 227 223 230 230 230 226 216 226 220 209 208 195 176 177 191 187 206 211 208 208 203 203 208 204 196 195 194 184 189 203 209 199 209 213 210 208 208 214 208 215 214 219 222 220 207 204 208 203 197 193 198 198 202 204 201 193 195 191 188 173 168 172 189 199 195 182 182 171 181 182 185 179 165 169 167 165
251 244 238 235 234 235 238 237 238 230 230 231 231 234 232 239 235 223 194 205 182 183 193 195 197 209 214 201 192 192 183 174 163 151 150 153 158 166 175 183 190 205 203 204 205 213 215 214 215 211 210 190 197 213 211 204 204 208 199 192 195 195 191 193 193 185 172 167 169 182 186 190 185 189 191 188 191 180 172 180 181 170 172 175 166
224 229 228 225 229 232 232 236 249 232 230 228 228 225 218 216 221 207 203 200 149 187 183 191 201 210 192 183 188 177 174 150 137 140 131 100 92 95 135 165 178 176 161 153 161 168 179 195 193 192 173 164 178 180 182 193 194 191 194 182 154 168 174 177 179 179 192 191 187 179 181 183 192 192 187 188 191 194 195 187 173 173 177 173 167
222 226 225 223 227 226 230 233 235 227 220 216 219 219 212 222 220 202 201 182 171 175 187 175 193 190 173 170 177 181 154 145 134 107 95 100 94 103 127 141 142 147 157 144 140 145 155 160 171 176 180 180 171 161 168 183 198 177 154 165 171 161 161 173 183 193 205 187 168 157 146 150 155 175 203 200 197 196 191 190 187 190 181 171 163
232 234 238 239 231 220 219 224 226 224 218 215 218 208 194 226 210 204 189 160 173 184 184 189 186 169 173 166 171 160 154 148 130 119 104 94 93 105 113 127 135 125 95 99 107 129 131 142 146 149 163 171 181 144 164 174 173 171 163 162 164 169 178 186 192 196 189 159 156 146 138 147 173 190 191 198 205 203 199 198 186 196 208 216 199
227 229 228 223 219 213 212 218 220 218 212 219 197 177 212 216 206 192 152 168 181 187 187 188 182 175 172 161 155 154 148 134 125 118 107 91 90 95 108 120 130 135 113 115 142 135 136 127 131 142 151 150 163 162 181 181 182 180 172 163 172 176 176 186 188 188 179 169 158 154 155 171 183 183 192 198 190 199 205 201 193 195 208 213 221
232 229 227 224 220 223 221 215 210 212 208 199 181 197 215 200 170 149 170 178 179 190 190 190 176 178 167 164 154 141 132 125 115 107 115 138 153 152 135 128 131 123 120 124 122 128 134 142 158 162 160 161 166 184 179 176 178 177 174 168 170 174 177 179 187 185 178 168 167 167 175 197 204 202 195 178 182 189 193 203 203 199 205 220 232
234 230 222 217 216 219 219 221 227 225 211 171 199 220 202 152 171 172 179 176 187 184 192 186 178 170 163 163 148 135 133 130 123 128 140 164 172 154 147 153 152 156 150 151 148 135 145 145 138 135 136 138 167 180 175 174 175 174 170 155 137 129 140 164 172 178 175 174 182 189 198 207 193 191 183 178 183 185 181 200 207 211 210 215 225
234 220 214 209 213 214 211 216 219 213 200 183 207 193 178 196 167 180 177 185 182 188 190 175 177 175 171 162 147 142 143 143 144 141 150 164 171 179 173 166 129 117 114 113 99 105 129 114 91 88 88 75 27 51 165 177 171 168 151 135 138 138 149 156 158 163 162 163 165 179 187 184 170 190 195 192 183 163 172 186 196 208 219 235 236
245 211 217 213 213 214 219 217 211 204 195 201 197 169 181 165 174 184 176 182 181 193 194 185 180 171 166 160 153 151 155 154 152 153 166 170 172 169 166 161 138 151 147 147 151 140 147 137 136 139 138 140 159 189 186 180 175 160 140 127 125 119 129 149 151 139 133 132 154 174 181 187 183 200 193 190 180 155 179 187 192 201 210 220 235
248 246 227 215 214 219 226 217 223 214 209 195 165 168 172 176 183 175 173 187 189 205 193 182 182 170 163 159 158 160 164 165 162 172 176 179 174 163 170 174 161 160 156 160 144 123 129 148 155 162 162 158 187 202 178 175 164 159 143 139 136 134 133 142 122 104 109 128 161 177 182 189 194 197 182 187 183 169 186 190 188 193 205 219 232
235 236 229 219 213 208 214 209 208 224 230 185 169 166 168 188 185 181 183 186 203 204 188 186 180 169 168 168 168 168 170 169 173 178 174 172 176 174 162 156 151 148 152 154 152 142 141 138 152 153 158 153 161 186 178 176 170 157 136 133 140 144 147 156 149 145 148 157 168 185 193 198 199 171 183 190 189 181 194 189 193 186 208 221 225
246 238 230 231 201 163 183 193 203 220 209 179 168 170 186 189 191 173 186 203 209 201 182 165 161 166 166 166 169 170 174 175 179 176 176 172 159 148 160 157 157 155 153 156 152 150 150 152 143 146 155 157 155 169 179 173 168 158 151 148 151 153 177 176 173 167 169 187 182 192 207 206 197 181 193 197 198 189 194 192 178 199 205 232 196
234 233 222 212 202 199 208 207 211 214 184 171 168 175 191 196 179 181 206 214 198 157 160 163 157 161 167 171 173 175 176 181 178 175 170 161 163 160 156 159 155 151 144 147 154 154 141 136 124 113 127 111 128 143 152 168 166 167 160 151 167 176 162 154 151 157 179 186 201 196 175 195 204 198 197 201 202 198 194 190 194 208 214 142 123
248 240 191 211 211 213 227 236 229 189 177 175 173 183 197 185 180 203 215 177 150 160 154 156 163 167 169 173 175 175 175 176 172 163 164 169 172 164 163 160 153 153 156 155 152 149 137 123 98 85 89 83 75 97 122 149 162 166 166 157 156 166 154 147 146 167 178 199 198 184 188 193 205 206 199 203 205 206 203 200 208 208 202 190 133
239 235 215 197 207 214 217 218 203 183 179 184 177 186 188 184 195 213 174 150 158 156 158 160 163 167 174 175 176 175 175 169 169 172 166 166 165 161 158 156 156 154 151 146 143 132 121 111 88 67 64 67 69 88 114 130 143 155 167 167 151 145 145 151 161 179 194 199 166 169 177 181 199 207 205 205 210 210 208 207 209 205 210 154 112
250 224 208 191 212 216 218 212 185 188 183 183 181 185 188 187 211 166 144 151 156 159 156 161 167 172 170 175 174 172 166 165 167 164 164 155 158 158 152 159 152 146 141 135 125 122 114 117 119 91 63 48 36 64 76 101 125 144 159 164 157 155 155 164 163 177 168 168 174 188 186 183 194 204 208 209 212 211 201 217 213 206 185 133 113
241 226 195 190 203 204 202 202 199 189 192 191 193 188 187 200 196 145 163 162 161 160 161 167 170 170 171 169 162 164 163 162 164 159 154 154 148 148 141 134 137 131 135 138 139 140 137 133 124 123 102 56 49 51 46 68 87 120 151 162 166 160 155 145 152 155 140 167 173 167 165 176 187 197 203 206 208 213 213 208 205 198 171 130 145
251 235 193 205 209 203 190 199 206 203 199 199 203 193 189 203 150 161 161 162 157 159 164 168 167 165 166 158 159 156 155 157 151 148 145 144 145 144 139 139 135 130 128 124 127 125 118 121 120 126 135 124 72 81 72 56 52 87 119 157 167 169 167 170 154 152 151 136 144 152 166 170 179 180 181 176 181 195 212 209 200 190 168 170 171
229 224 185 190 186 190 198 197 202 203 198 200 199 207 188 129 161 159 158 153 158 160 161 163 164 161 157 162 162 160 153 149 145 133 135 145 150 147 143 144 149 143 132 128 128 132 133 130 137 134 130 121 89 91 100 99 76 94 106 114 139 160 156 136 99 100 110 115 135 136 144 142 141 161 160 159 153 158 189 221 207 179 178 182 183
224 211 191 194 191 197 200 198 205 197 191 186 182 175 148 149 152 160 153 152 155 163 164 167 163 160 162 164 160 150 148 145 143 139 137 140 144 150 149 154 164 159 148 147 151 154 158 157 152 151 140 143 145 156 182 170 169 140 117 93 108 124 140 145 126 100 99 110 96 89 81 70 78 68 78 69 68 82 145 181 219 197 196 196 196
214 211 195 199 201 204 206 202 201 152 163 166 167 152 152 156 157 156 156 153 156 154 154 154 156 153 157 157 150 153 148 141 131 118 93 108 154 154 138 113 56 135 153 157 166 163 158 155 151 155 153 153 183 204 223 193 171 162 144 134 136 143 142 144 150 133 89 62 70 69 78 66 71 94 76 72 31 16 339 354 290 276 230 206 200
232 211 209 224 230 219 204 189 152 149 157 156 146 146 150 159 154 158 156 154 151 151 152 160 159 159 152 151 149 149 145 139 133 126 119 83 48 61 94 135 134 104 95 95 106 155 159 147 144 130 121 156 180 211 208 162 165 164 161 155 153 150 151 140 150 137 113 93 81 104 93 121 107 105 118 128 195 160 249 283 270 246 219 216 217
177 165 191 199 185 153 150 153 156 150 149 145 140 143 152 161 163 160 156 150 151 153 157 156 159 163 160 154 149 144 144 136 135 135 130 124 110 67 60 76 97 110 107 101 103 110 115 123 130 152 242 68 126 108 121 146 148 158 161 158 145 151 148 150 146 109 70 116 120 130 138 95 119 132 166 194 190 191 218 215 240 228 222 215 228